Weather History for Baker, MT

Change the Weather History Date:

Sunday, November 10, 2013

  Actual Average Record
Temperature  
Mean Temperature 28 °F -  
Max Temperature 39 °F 14 °F 68 °F (2007)
Min Temperature 18 °F -10 °F 1 °F (2000)
Degree Days  
Heating Degree Days 36    
Moisture  
Dew Point 23 °F    
Average Humidity 86    
Maximum Humidity 93    
Minimum Humidity 60    
Precipitation  
Precipitation 0.02 in - - ()
Sea Level Pressure  
Sea Level Pressure 30.26 in    
Wind  
Wind Speed 9 mph (NE)    
Max Wind Speed 15 mph    
Max Gust Speed -    
Visibility 8 miles    
Events Snow    
Averages and records for this station are not official NWS values.
T = Trace of Precipitation, MM = Missing Value Source: NWS Daily Summary

Daily Weather History Graph

Daily Weather History Graph

Search for Another Location

Airport:

Trip Planner

Search our weather history database for the weather conditions in past years. The results will help you decide how hot, cold, wet, or windy it might be!

Date:

Astronomy

Nov. 10, 2013 Rise Set
Actual Time 6:51 AM MST 4:29 PM MST
Civil Twilight 6:19 AM MST 5:01 PM MST
Nautical Twilight 5:43 AM MST 5:38 PM MST
Astronomical Twilight 5:08 AM MST 6:13 PM MST
Moon 12:58 PM MST (11/10) No Moon Set
Length of Visible Light 10h 42m
Length of Day
9h 37m
First Quarter, 56% of the Moon is Illuminated
Nov 10
First Quarter
Nov 17
Full
Nov 25
Last Quarter
Dec 2
New
Dec 9
First Quarter

Hourly Weather History & Observations

Time (MST) Temp. Windchill Dew Point Humidity Pressure Visibility Wind Dir Wind Speed Gust Speed Precip Events Conditions
12:51 AM 27.0 °F 18.7 °F 24.1 °F 89% 30.25 in 10.0 mi ESE 8.1 mph - N/A   Clear
1:51 AM 27.0 °F 18.0 °F 24.1 °F 89% 30.22 in 10.0 mi SE 9.2 mph - N/A   Clear
2:51 AM 30.0 °F 21.7 °F 25.0 °F 82% 30.20 in 10.0 mi SE 9.2 mph - N/A   Clear
3:51 AM 28.9 °F 21.9 °F 25.0 °F 85% 30.19 in 10.0 mi SSE 6.9 mph - N/A   Mostly Cloudy
4:51 AM 28.9 °F 25.2 °F 26.1 °F 89% 30.20 in 10.0 mi SSE 3.5 mph - N/A   Overcast
5:51 AM 30.0 °F 26.5 °F 27.0 °F 88% 30.20 in 10.0 mi ENE 3.5 mph - N/A   Overcast
6:51 AM 32.0 °F - 28.9 °F 88% 30.20 in 10.0 mi Calm Calm - N/A   Overcast
7:51 AM 33.1 °F - 30.9 °F 92% 30.21 in 10.0 mi Calm Calm - N/A   Overcast
8:51 AM 36.0 °F - 32.0 °F 86% 30.20 in 10.0 mi Calm Calm - N/A   Overcast
9:51 AM 39.9 °F 35.1 °F 30.9 °F 70% 30.20 in 10.0 mi WNW 6.9 mph - N/A   Overcast
10:51 AM 39.9 °F 33.4 °F 27.0 °F 60% 30.20 in 10.0 mi NNW 10.4 mph - N/A   Overcast
11:51 AM 37.9 °F 30.5 °F 28.0 °F 68% 30.21 in 10.0 mi North 11.5 mph - N/A   Overcast
12:51 PM 39.9 °F 32.5 °F 28.0 °F 63% 30.20 in 10.0 mi North 12.7 mph - N/A   Mostly Cloudy
1:51 PM 36.0 °F 28.0 °F 27.0 °F 70% 30.22 in 10.0 mi North 11.5 mph - N/A   Overcast
2:51 PM 30.0 °F 19.1 °F 25.0 °F 82% 30.25 in 9.0 mi NNE 15.0 mph - N/A   Overcast
3:07 PM 28.9 °F 18.6 °F 25.0 °F 85% 30.16 in 8.0 mi NE 12.7 mph - N/A   Overcast
3:51 PM 28.0 °F 17.5 °F 25.0 °F 88% 30.27 in 9.0 mi NE 12.7 mph - N/A   Overcast
4:12 PM 28.0 °F 18.6 °F 25.0 °F 88% 30.20 in 8.0 mi NE 10.4 mph - N/A   Overcast
4:51 PM 27.0 °F 17.3 °F 25.0 °F 92% 30.29 in 5.0 mi NE 10.4 mph - 0.00 in Snow Light Snow
5:15 PM 27.0 °F 18.0 °F 24.1 °F 89% 30.21 in 8.0 mi NE 9.2 mph - 0.00 in   Overcast
5:27 PM 27.0 °F 16.7 °F 24.1 °F 89% 30.22 in 8.0 mi ENE 11.5 mph - 0.00 in   Overcast
5:49 PM 26.6 °F 15.7 °F 24.8 °F 93% 30.22 in 6.0 mi NE 12.7 mph - 0.00 in Snow Light Snow
5:51 PM 27.0 °F 15.6 °F 24.1 °F 89% 30.32 in 6.0 mi NE 13.8 mph - 0.00 in Snow Light Snow
6:03 PM 26.1 °F 15.6 °F 23.0 °F 88% 30.23 in 5.0 mi NE 11.5 mph - 0.00 in Snow Light Snow
6:45 PM 24.1 °F 12.5 °F 21.0 °F 88% 30.23 in 10.0 mi NNE 12.7 mph - 0.00 in   Overcast
6:51 PM 24.1 °F 12.5 °F 21.0 °F 88% 30.33 in 10.0 mi NNE 12.7 mph - 0.00 in   Overcast
6:59 PM 23.0 °F 10.6 °F 21.0 °F 92% 30.23 in 10.0 mi NNE 13.8 mph - N/A   Overcast
7:05 PM 23.0 °F 11.1 °F 19.0 °F 85% 30.24 in 10.0 mi NNE 12.7 mph - 0.00 in Snow Light Snow
7:17 PM 23.0 °F 13.1 °F 19.0 °F 85% 30.25 in 9.0 mi NE 9.2 mph - 0.00 in   Overcast
7:27 PM 23.0 °F 13.9 °F 19.0 °F 85% 30.25 in 7.0 mi NE 8.1 mph - 0.00 in Snow Light Snow
7:51 PM 21.9 °F 11.0 °F 18.0 °F 85% 30.36 in 4.0 mi NNE 10.4 mph - 0.00 in Snow Light Snow
8:15 PM 21.0 °F 9.3 °F 18.0 °F 88% 30.27 in 2.5 mi NE 11.5 mph - 0.00 in Snow Light Snow
8:24 PM 21.0 °F 8.6 °F 18.0 °F 88% 30.27 in 1.8 mi NE 12.7 mph - 0.00 in Snow Light Snow
8:46 PM 19.9 °F 8.6 °F 18.0 °F 92% 30.29 in 2.5 mi NE 10.4 mph - 0.00 in Snow Light Snow
8:51 PM 19.9 °F 8.6 °F 18.0 °F 92% 30.38 in 3.0 mi NE 10.4 mph - 0.00 in Snow Light Snow
9:00 PM 19.9 °F 9.3 °F 18.0 °F 92% 30.29 in 4.0 mi NE 9.2 mph - 0.00 in Snow Light Snow
9:27 PM 19.9 °F 7.9 °F 17.1 °F 89% 30.30 in 2.5 mi NE 11.5 mph - 0.00 in Snow Light Snow
9:51 PM 19.0 °F 7.5 °F 17.1 °F 92% 30.41 in 2.5 mi NE 10.4 mph - 0.00 in Snow Light Snow
10:21 PM 19.0 °F 7.5 °F 17.1 °F 92% 30.32 in 3.0 mi NE 10.4 mph - 0.00 in Snow Light Snow
10:51 PM 18.0 °F 5.4 °F 16.0 °F 92% 30.42 in 8.0 mi ENE 11.5 mph - 0.01 in Snow Light Snow
11:38 PM 18.0 °F 5.4 °F 15.1 °F 88% 30.34 in 9.0 mi NE 11.5 mph - 0.01 in Snow Light Snow
11:51 PM 18.0 °F 7.7 °F 15.1 °F 88% 30.45 in 4.0 mi NE 8.1 mph - 0.01 in Snow Light Snow